Precipitable_Water
1.46 1.43 1.47 1.46 1.45 1.41 1.41 1.44 1.45 1.47 1.44 1.41 1.34 1.29 1.27 1.25 1.23 1.23 1.26 1.24 1.26 1.24 1.24 1.27 1.35 1.41 1.45 1.47 1.46 1.46 1.45 1.43 1.41 1.38 1.35 1.32 1.32 1.31 1.30 1.28 1.23 1.20 1.16 1.11 1.14 1.13 1.11 1.08 1.08 1.10 1.13 1.10 1.09 1.11 1.11 1.12 1.13 1.10 1.11 1.12 1.12 1.16 1.15 1.09 0.99 0.94 1.01 1.10 1.07 1.08 1.17 1.19 1.14 1.19 1.17 1.21 1.24 1.27 1.29 1.29 1.31 1.29 1.28 1.29 1.29
1.42 1.41 1.44 1.45 1.44 1.44 1.45 1.48 1.49 1.49 1.45 1.41 1.36 1.33 1.30 1.27 1.27 1.28 1.24 1.27 1.28 1.24 1.23 1.26 1.32 1.40 1.43 1.44 1.45 1.45 1.45 1.43 1.41 1.37 1.32 1.30 1.30 1.33 1.31 1.29 1.26 1.23 1.21 1.13 1.13 1.15 1.14 1.10 1.10 1.13 1.14 1.09 1.09 1.08 1.10 1.11 1.10 1.06 1.07 1.08 1.10 1.12 1.18 1.12 1.06 0.99 0.92 1.02 1.02 1.12 1.14 1.23 1.12 1.23 1.16 1.18 1.21 1.28 1.27 1.29 1.32 1.33 1.32 1.33 1.32
1.41 1.44 1.45 1.44 1.43 1.46 1.49 1.48 1.50 1.49 1.45 1.41 1.36 1.35 1.34 1.33 1.33 1.27 1.25 1.26 1.29 1.26 1.24 1.26 1.30 1.36 1.40 1.42 1.43 1.42 1.42 1.41 1.41 1.37 1.32 1.29 1.29 1.31 1.33 1.33 1.32 1.28 1.22 1.16 1.15 1.18 1.16 1.12 1.11 1.14 1.15 1.08 1.06 1.07 1.10 1.10 1.11 1.08 1.07 1.09 1.08 1.10 1.14 1.16 1.08 1.00 0.96 0.97 1.07 1.07 1.10 1.17 1.15 1.17 1.23 1.26 1.29 1.32 1.28 1.28 1.31 1.36 1.40 1.41 1.38
1.42 1.44 1.45 1.45 1.47 1.49 1.47 1.48 1.48 1.48 1.44 1.42 1.38 1.39 1.40 1.38 1.37 1.31 1.28 1.28 1.25 1.27 1.28 1.27 1.30 1.33 1.36 1.39 1.40 1.39 1.39 1.40 1.39 1.37 1.34 1.32 1.30 1.29 1.32 1.34 1.36 1.37 1.34 1.29 1.26 1.25 1.22 1.18 1.13 1.12 1.13 1.07 1.03 1.03 1.08 1.10 1.10 1.09 1.08 1.11 1.12 1.12 1.14 1.15 1.15 1.08 1.07 1.01 1.06 1.06 1.12 1.12 1.17 1.24 1.27 1.31 1.32 1.31 1.32 1.34 1.39 1.39 1.40 1.41 1.37
1.41 1.42 1.44 1.44 1.47 1.45 1.44 1.46 1.44 1.44 1.44 1.45 1.43 1.44 1.43 1.40 1.37 1.31 1.29 1.25 1.26 1.28 1.28 1.30 1.29 1.31 1.32 1.34 1.35 1.36 1.35 1.36 1.36 1.36 1.36 1.36 1.34 1.32 1.31 1.32 1.35 1.38 1.39 1.40 1.41 1.40 1.36 1.28 1.23 1.18 1.13 1.07 1.03 1.02 1.04 1.04 1.08 1.08 1.06 1.09 1.12 1.16 1.17 1.18 1.17 1.17 1.12 1.08 1.10 1.14 1.16 1.17 1.23 1.25 1.29 1.26 1.31 1.33 1.35 1.34 1.36 1.36 1.36 1.38 1.35
1.39 1.41 1.43 1.43 1.43 1.42 1.42 1.42 1.40 1.40 1.42 1.43 1.43 1.43 1.41 1.38 1.33 1.31 1.28 1.24 1.26 1.27 1.26 1.26 1.26 1.26 1.29 1.31 1.33 1.33 1.35 1.36 1.35 1.35 1.36 1.36 1.35 1.33 1.33 1.33 1.34 1.38 1.41 1.42 1.44 1.46 1.45 1.44 1.39 1.31 1.20 1.08 1.03 1.05 1.06 1.04 1.06 1.05 1.05 1.06 1.10 1.14 1.15 1.17 1.19 1.19 1.17 1.14 1.14 1.12 1.16 1.12 1.17 1.23 1.30 1.33 1.28 1.26 1.26 1.31 1.35 1.36 1.34 1.30 1.30
1.39 1.40 1.42 1.41 1.41 1.40 1.39 1.38 1.39 1.41 1.42 1.43 1.45 1.44 1.41 1.39 1.35 1.28 1.27 1.24 1.22 1.21 1.24 1.24 1.26 1.25 1.26 1.29 1.29 1.30 1.32 1.34 1.34 1.35 1.36 1.36 1.34 1.32 1.31 1.31 1.32 1.35 1.39 1.42 1.45 1.48 1.50 1.51 1.51 1.47 1.35 1.22 1.08 1.04 1.07 1.08 1.04 1.03 1.04 1.04 1.08 1.10 1.11 1.13 1.16 1.16 1.15 1.12 1.15 1.17 1.15 1.20 1.20 1.16 1.31 1.39 1.36 1.31 1.22 1.22 1.23 1.33 1.35 1.30 1.24
1.36 1.38 1.40 1.40 1.40 1.39 1.39 1.41 1.43 1.44 1.46 1.47 1.45 1.43 1.43 1.41 1.38 1.35 1.31 1.23 1.19 1.19 1.19 1.20 1.22 1.24 1.24 1.25 1.27 1.30 1.30 1.31 1.32 1.34 1.35 1.35 1.34 1.32 1.32 1.31 1.31 1.33 1.36 1.41 1.45 1.49 1.54 1.57 1.58 1.57 1.52 1.45 1.33 1.19 1.11 1.05 1.07 1.03 1.06 1.07 1.07 1.07 1.07 1.10 1.13 1.14 1.11 1.09 1.08 1.10 1.16 1.16 1.20 1.27 1.34 1.34 1.27 1.29 1.35 1.32 1.22 1.23 1.28 1.34 1.32
1.32 1.33 1.35 1.35 1.35 1.39 1.44 1.47 1.49 1.49 1.49 1.47 1.45 1.42 1.42 1.41 1.39 1.35 1.29 1.23 1.21 1.19 1.21 1.21 1.20 1.19 1.22 1.25 1.26 1.29 1.28 1.28 1.30 1.31 1.31 1.33 1.34 1.32 1.34 1.35 1.36 1.35 1.37 1.41 1.47 1.52 1.57 1.61 1.64 1.65 1.62 1.59 1.57 1.49 1.34 1.19 1.09 1.02 1.04 1.06 1.05 1.06 1.07 1.09 1.11 1.12 1.10 1.08 1.08 1.15 1.16 1.18 1.20 1.19 1.19 1.22 1.23 1.26 1.39 1.41 1.34 1.34 1.34 1.31 1.34
1.28 1.30 1.29 1.29 1.34 1.41 1.46 1.48 1.49 1.50 1.49 1.46 1.44 1.43 1.42 1.40 1.36 1.31 1.25 1.23 1.20 1.19 1.19 1.20 1.19 1.17 1.17 1.21 1.24 1.26 1.26 1.28 1.29 1.31 1.33 1.33 1.33 1.34 1.37 1.40 1.41 1.42 1.42 1.44 1.51 1.57 1.62 1.66 1.70 1.70 1.69 1.71 1.71 1.66 1.54 1.38 1.23 1.13 1.10 1.08 1.06 1.05 1.06 1.06 1.08 1.10 1.09 1.06 1.08 1.13 1.14 1.17 1.22 1.24 1.22 1.29 1.38 1.39 1.37 1.40 1.34 1.38 1.37 1.31 1.32
1.27 1.28 1.26 1.29 1.35 1.40 1.43 1.45 1.48 1.47 1.48 1.49 1.48 1.45 1.42 1.40 1.34 1.28 1.24 1.22 1.20 1.19 1.18 1.15 1.15 1.17 1.17 1.17 1.18 1.22 1.24 1.26 1.26 1.29 1.31 1.35 1.37 1.38 1.38 1.40 1.44 1.47 1.49 1.52 1.55 1.62 1.68 1.73 1.75 1.74 1.78 1.81 1.81 1.77 1.70 1.54 1.32 1.18 1.16 1.14 1.12 1.09 1.05 1.05 1.08 1.12 1.10 1.08 1.14 1.18 1.19 1.21 1.23 1.27 1.29 1.31 1.34 1.35 1.36 1.39 1.36 1.34 1.28 1.21 1.14
1.25 1.25 1.25 1.31 1.38 1.39 1.40 1.43 1.45 1.45 1.49 1.48 1.48 1.47 1.44 1.40 1.34 1.29 1.24 1.21 1.20 1.21 1.16 1.12 1.14 1.16 1.17 1.17 1.16 1.18 1.21 1.24 1.26 1.27 1.31 1.35 1.40 1.42 1.43 1.44 1.47 1.50 1.55 1.60 1.64 1.70 1.73 1.74 1.76 1.74 1.72 1.79 1.86 1.86 1.75 1.61 1.41 1.24 1.19 1.18 1.16 1.16 1.14 1.12 1.11 1.13 1.14 1.11 1.13 1.21 1.29 1.29 1.30 1.31 1.31 1.32 1.33 1.39 1.39 1.36 1.32 1.26 1.23 1.20 1.18
1.29 1.28 1.31 1.36 1.38 1.41 1.43 1.43 1.42 1.43 1.45 1.48 1.52 1.50 1.45 1.40 1.36 1.33 1.26 1.24 1.22 1.16 1.11 1.12 1.13 1.16 1.16 1.13 1.13 1.18 1.20 1.23 1.25 1.27 1.31 1.36 1.42 1.46 1.48 1.48 1.48 1.51 1.58 1.63 1.71 1.71 1.67 1.69 1.73 1.76 1.77 1.87 1.88 1.88 1.83 1.71 1.53 1.34 1.23 1.23 1.24 1.21 1.19 1.21 1.25 1.25 1.27 1.22 1.20 1.22 1.25 1.28 1.28 1.34 1.40 1.38 1.41 1.31 1.33 1.28 1.26 1.25 1.25 1.19 1.14
1.31 1.31 1.35 1.37 1.39 1.42 1.44 1.43 1.41 1.42 1.47 1.51 1.54 1.51 1.47 1.40 1.39 1.39 1.37 1.32 1.23 1.16 1.13 1.10 1.11 1.13 1.14 1.13 1.14 1.19 1.20 1.21 1.23 1.27 1.31 1.37 1.43 1.48 1.50 1.50 1.49 1.53 1.58 1.64 1.67 1.57 1.58 1.66 1.71 1.72 1.73 1.76 1.83 1.86 1.87 1.80 1.64 1.48 1.34 1.29 1.27 1.27 1.25 1.25 1.28 1.33 1.35 1.31 1.28 1.26 1.33 1.35 1.28 1.36 1.46 1.47 1.39 1.34 1.30 1.25 1.27 1.22 1.17 1.12 1.18
1.29 1.32 1.35 1.39 1.43 1.45 1.46 1.45 1.42 1.46 1.50 1.53 1.54 1.52 1.50 1.49 1.48 1.46 1.42 1.35 1.27 1.19 1.13 1.10 1.11 1.12 1.15 1.17 1.16 1.17 1.18 1.21 1.23 1.27 1.31 1.37 1.44 1.49 1.51 1.50 1.51 1.53 1.59 1.63 1.62 1.64 1.75 1.76 1.73 1.72 1.70 1.72 1.81 1.83 1.79 1.77 1.70 1.56 1.42 1.33 1.32 1.33 1.31 1.27 1.29 1.33 1.35 1.38 1.36 1.32 1.33 1.38 1.43 1.48 1.48 1.49 1.46 1.43 1.40 1.33 1.29 1.24 1.22 1.23 1.18
1.27 1.33 1.36 1.38 1.40 1.41 1.43 1.45 1.47 1.50 1.52 1.54 1.53 1.52 1.53 1.55 1.52 1.52 1.50 1.46 1.42 1.34 1.26 1.20 1.13 1.12 1.15 1.16 1.15 1.13 1.17 1.22 1.24 1.28 1.33 1.39 1.47 1.49 1.48 1.49 1.51 1.54 1.60 1.63 1.66 1.71 1.75 1.74 1.72 1.71 1.70 1.66 1.75 1.79 1.78 1.78 1.72 1.62 1.44 1.35 1.36 1.37 1.31 1.33 1.38 1.40 1.40 1.39 1.39 1.39 1.40 1.45 1.49 1.51 1.51 1.49 1.48 1.47 1.42 1.37 1.31 1.24 1.13 1.03 0.93
1.25 1.29 1.29 1.32 1.35 1.39 1.43 1.45 1.48 1.51 1.54 1.54 1.53 1.53 1.54 1.57 1.61 1.65 1.56 1.51 1.45 1.39 1.31 1.25 1.23 1.20 1.17 1.17 1.14 1.12 1.17 1.22 1.25 1.29 1.34 1.42 1.46 1.47 1.47 1.50 1.51 1.53 1.55 1.59 1.60 1.66 1.71 1.76 1.77 1.75 1.72 1.70 1.79 1.80 1.82 1.73 1.64 1.57 1.47 1.37 1.33 1.31 1.29 1.33 1.36 1.38 1.40 1.42 1.43 1.41 1.43 1.48 1.52 1.52 1.51 1.48 1.44 1.42 1.34 1.22 1.11 1.08 0.94 0.82 0.81
1.22 1.23 1.22 1.27 1.32 1.37 1.40 1.41 1.41 1.43 1.47 1.45 1.47 1.53 1.60 1.66 1.66 1.70 1.60 1.53 1.50 1.48 1.44 1.38 1.33 1.28 1.21 1.17 1.16 1.14 1.16 1.23 1.26 1.31 1.37 1.43 1.45 1.45 1.48 1.50 1.50 1.55 1.54 1.55 1.61 1.66 1.73 1.77 1.77 1.75 1.71 1.71 1.77 1.77 1.78 1.72 1.62 1.56 1.49 1.40 1.31 1.23 1.25 1.32 1.33 1.38 1.43 1.41 1.39 1.42 1.45 1.48 1.48 1.46 1.44 1.41 1.37 1.35 1.21 1.01 1.00 0.93 0.83 0.80 0.75
1.22 1.17 1.18 1.27 1.34 1.39 1.42 1.43 1.45 1.47 1.48 1.51 1.56 1.58 1.61 1.63 1.70 1.77 1.72 1.67 1.59 1.59 1.56 1.44 1.37 1.35 1.30 1.26 1.25 1.22 1.21 1.24 1.28 1.34 1.40 1.44 1.47 1.51 1.53 1.52 1.51 1.54 1.51 1.52 1.64 1.69 1.73 1.75 1.75 1.75 1.73 1.73 1.75 1.74 1.71 1.68 1.59 1.51 1.44 1.35 1.25 1.21 1.22 1.29 1.31 1.30 1.27 1.28 1.34 1.40 1.42 1.43 1.40 1.37 1.35 1.33 1.29 1.23 1.14 1.01 0.96 0.87 0.80 0.80 0.75
1.13 1.14 1.25 1.35 1.39 1.39 1.41 1.42 1.43 1.44 1.44 1.48 1.55 1.61 1.69 1.73 1.74 1.72 1.73 1.74 1.67 1.63 1.59 1.52 1.42 1.37 1.37 1.35 1.32 1.29 1.26 1.28 1.31 1.36 1.42 1.45 1.49 1.55 1.58 1.54 1.51 1.51 1.50 1.52 1.56 1.63 1.67 1.71 1.72 1.71 1.72 1.73 1.72 1.71 1.71 1.67 1.58 1.49 1.40 1.29 1.21 1.17 1.31 1.30 1.25 1.23 1.24 1.27 1.31 1.37 1.36 1.34 1.30 1.28 1.24 1.19 1.15 1.08 1.00 0.97 0.95 0.91 0.82 0.74 0.69
1.22 1.28 1.35 1.38 1.39 1.39 1.41 1.40 1.38 1.40 1.44 1.45 1.51 1.57 1.64 1.63 1.64 1.67 1.67 1.70 1.70 1.66 1.60 1.55 1.47 1.41 1.43 1.43 1.39 1.37 1.35 1.32 1.33 1.38 1.44 1.47 1.52 1.58 1.62 1.60 1.61 1.60 1.56 1.57 1.61 1.61 1.64 1.67 1.69 1.71 1.70 1.69 1.70 1.71 1.66 1.58 1.53 1.45 1.36 1.25 1.24 1.30 1.31 1.22 1.23 1.26 1.27 1.31 1.35 1.32 1.27 1.24 1.21 1.18 1.12 1.04 0.97 0.95 0.95 0.96 0.94 0.89 0.78 0.69 0.65
1.28 1.29 1.31 1.32 1.36 1.39 1.41 1.43 1.45 1.45 1.50 1.53 1.49 1.45 1.50 1.60 1.66 1.62 1.61 1.59 1.58 1.59 1.59 1.56 1.51 1.46 1.46 1.47 1.45 1.42 1.44 1.43 1.38 1.41 1.47 1.51 1.55 1.64 1.67 1.67 1.70 1.67 1.60 1.63 1.66 1.65 1.66 1.66 1.65 1.67 1.68 1.69 1.71 1.69 1.60 1.50 1.45 1.40 1.33 1.32 1.36 1.30 1.21 1.22 1.25 1.26 1.29 1.32 1.28 1.21 1.17 1.14 1.10 1.03 0.96 0.91 0.88 0.90 0.92 0.92 0.88 0.82 0.79 0.75 0.68
1.35 1.35 1.34 1.35 1.37 1.39 1.42 1.46 1.47 1.50 1.51 1.51 1.48 1.43 1.45 1.49 1.58 1.67 1.62 1.57 1.53 1.53 1.55 1.55 1.53 1.49 1.47 1.45 1.46 1.48 1.50 1.51 1.48 1.48 1.53 1.56 1.61 1.69 1.74 1.77 1.81 1.75 1.65 1.63 1.67 1.68 1.69 1.64 1.64 1.64 1.65 1.66 1.68 1.64 1.52 1.43 1.38 1.35 1.34 1.35 1.29 1.23 1.22 1.22 1.24 1.26 1.25 1.23 1.17 1.10 1.08 1.03 0.94 0.88 0.85 0.84 0.89 0.93 0.90 0.85 0.81 0.80 0.79 0.78 0.76
1.35 1.35 1.35 1.36 1.38 1.38 1.41 1.46 1.51 1.54 1.54 1.53 1.55 1.53 1.52 1.48 1.49 1.54 1.55 1.51 1.49 1.51 1.55 1.56 1.54 1.50 1.44 1.40 1.43 1.46 1.51 1.53 1.53 1.58 1.61 1.62 1.68 1.73 1.78 1.85 1.85 1.78 1.74 1.71 1.73 1.71 1.64 1.60 1.60 1.60 1.61 1.62 1.62 1.54 1.44 1.37 1.34 1.33 1.32 1.27 1.22 1.22 1.23 1.24 1.24 1.24 1.21 1.14 1.08 1.03 0.96 0.92 0.86 0.81 0.82 0.88 0.90 0.89 0.84 0.82 0.81 0.80 0.77 0.76 0.76
1.29 1.30 1.31 1.35 1.38 1.41 1.46 1.50 1.53 1.56 1.58 1.58 1.53 1.53 1.51 1.52 1.48 1.51 1.53 1.51 1.48 1.44 1.48 1.56 1.52 1.46 1.45 1.41 1.37 1.39 1.44 1.49 1.54 1.62 1.66 1.68 1.72 1.76 1.83 1.87 1.88 1.84 1.74 1.74 1.73 1.68 1.62 1.59 1.58 1.58 1.59 1.60 1.57 1.45 1.37 1.34 1.32 1.29 1.22 1.19 1.22 1.24 1.25 1.24 1.22 1.19 1.10 1.05 1.00 0.94 0.89 0.85 0.83 0.83 0.88 0.92 0.91 0.87 0.83 0.82 0.82 0.79 0.78 0.77 0.75
1.19 1.21 1.27 1.31 1.34 1.38 1.38 1.40 1.46 1.49 1.50 1.53 1.49 1.48 1.42 1.40 1.41 1.47 1.53 1.53 1.57 1.57 1.53 1.51 1.52 1.54 1.51 1.49 1.44 1.38 1.39 1.44 1.51 1.60 1.66 1.71 1.75 1.82 1.88 1.90 1.89 1.82 1.79 1.75 1.70 1.63 1.57 1.54 1.54 1.55 1.54 1.55 1.49 1.38 1.33 1.30 1.24 1.19 1.23 1.28 1.29 1.26 1.24 1.21 1.17 1.11 1.05 0.99 0.92 0.85 0.82 0.84 0.84 0.87 0.90 0.88 0.83 0.79 0.78 0.76 0.74 0.72 0.71 0.68 0.64
1.12 1.12 1.12 1.15 1.20 1.24 1.25 1.26 1.32 1.39 1.46 1.50 1.53 1.53 1.55 1.50 1.46 1.47 1.52 1.55 1.55 1.57 1.52 1.45 1.43 1.46 1.47 1.50 1.52 1.48 1.44 1.45 1.47 1.54 1.64 1.69 1.75 1.83 1.87 1.89 1.83 1.77 1.73 1.69 1.62 1.54 1.52 1.51 1.49 1.50 1.51 1.53 1.45 1.36 1.30 1.23 1.23 1.27 1.29 1.27 1.26 1.26 1.25 1.21 1.14 1.07 0.99 0.91 0.85 0.84 0.85 0.86 0.89 0.86 0.82 0.79 0.77 0.77 0.78 0.74 0.71 0.69 0.69 0.65 0.58
1.09 1.12 1.15 1.18 1.19 1.21 1.22 1.24 1.28 1.31 1.35 1.39 1.39 1.41 1.45 1.47 1.47 1.43 1.43 1.40 1.38 1.43 1.52 1.49 1.42 1.39 1.42 1.48 1.51 1.49 1.47 1.49 1.50 1.51 1.57 1.68 1.76 1.83 1.88 1.81 1.70 1.66 1.63 1.60 1.55 1.52 1.49 1.47 1.45 1.44 1.47 1.45 1.35 1.28 1.26 1.27 1.27 1.24 1.21 1.22 1.23 1.23 1.20 1.16 1.10 1.02 0.93 0.90 0.87 0.87 0.87 0.86 0.82 0.79 0.78 0.75 0.74 0.74 0.76 0.73 0.69 0.66 0.63 0.59 0.51
1.10 1.14 1.20 1.25 1.26 1.31 1.30 1.28 1.30 1.31 1.34 1.39 1.40 1.39 1.35 1.37 1.42 1.47 1.52 1.54 1.52 1.47 1.49 1.62 1.66 1.67 1.64 1.55 1.51 1.52 1.51 1.46 1.54 1.64 1.66 1.74 1.77 1.80 1.78 1.69 1.63 1.62 1.61 1.57 1.52 1.50 1.47 1.41 1.38 1.38 1.40 1.35 1.27 1.24 1.23 1.21 1.18 1.19 1.18 1.18 1.17 1.14 1.10 1.03 0.93 0.87 0.87 0.87 0.85 0.84 0.83 0.81 0.77 0.76 0.74 0.71 0.71 0.73 0.75 0.71 0.68 0.61 0.58 0.54 0.48
1.03 1.07 1.15 1.21 1.26 1.30 1.34 1.37 1.39 1.41 1.41 1.40 1.41 1.43 1.53 1.56 1.54 1.47 1.45 1.55 1.60 1.61 1.59 1.53 1.57 1.64 1.71 1.77 1.75 1.59 1.50 1.58 1.73 1.78 1.85 1.86 1.88 1.87 1.78 1.72 1.64 1.56 1.53 1.54 1.51 1.43 1.39 1.35 1.34 1.35 1.35 1.28 1.22 1.19 1.16 1.13 1.13 1.13 1.13 1.12 1.08 1.04 0.98 0.93 0.89 0.87 0.88 0.87 0.86 0.84 0.81 0.77 0.73 0.72 0.70 0.69 0.70 0.70 0.70 0.65 0.60 0.58 0.52 0.49 0.47
0.99 1.01 1.04 1.08 1.14 1.20 1.26 1.30 1.35 1.39 1.42 1.42 1.43 1.42 1.43 1.52 1.56 1.57 1.57 1.56 1.58 1.60 1.64 1.68 1.73 1.68 1.64 1.71 1.98 2.03 1.93 1.85 1.79 1.94 1.96 1.94 1.92 1.86 1.74 1.59 1.52 1.52 1.53 1.47 1.42 1.37 1.34 1.32 1.32 1.34 1.31 1.26 1.20 1.16 1.14 1.13 1.12 1.09 1.04 1.02 1.01 0.97 0.92 0.88 0.88 0.90 0.89 0.88 0.86 0.83 0.79 0.76 0.72 0.71 0.68 0.67 0.66 0.66 0.64 0.61 0.57 0.53 0.50 0.49 0.46
0.99 1.03 1.07 1.09 1.11 1.13 1.16 1.19 1.23 1.26 1.30 1.34 1.39 1.47 1.47 1.41 1.44 1.56 1.58 1.59 1.59 1.61 1.64 1.71 1.79 1.84 1.86 1.84 1.95 1.90 1.98 1.93 1.97 1.96 1.95 2.00 1.88 1.73 1.56 1.48 1.50 1.50 1.49 1.49 1.38 1.33 1.34 1.33 1.32 1.32 1.29 1.21 1.16 1.15 1.14 1.13 1.10 1.04 1.01 0.96 0.92 0.92 0.89 0.87 0.91 0.91 0.90 0.88 0.84 0.80 0.77 0.74 0.72 0.71 0.69 0.67 0.64 0.60 0.57 0.53 0.51 0.50 0.50 0.47 0.43
1.04 1.06 1.08 1.10 1.11 1.13 1.15 1.17 1.19 1.21 1.22 1.24 1.29 1.35 1.36 1.39 1.35 1.33 1.43 1.59 1.62 1.63 1.67 1.72 1.75 1.84 2.01 2.01 1.92 1.91 1.85 1.84 1.88 1.90 1.88 1.92 1.80 1.60 1.47 1.46 1.47 1.47 1.46 1.40 1.33 1.30 1.33 1.35 1.32 1.32 1.25 1.15 1.14 1.13 1.14 1.12 1.09 1.04 0.98 0.92 0.87 0.88 0.90 0.93 0.95 0.93 0.91 0.88 0.82 0.77 0.76 0.74 0.71 0.67 0.61 0.59 0.57 0.54 0.52 0.50 0.50 0.49 0.46 0.41 0.39
1.08 1.08 1.07 1.07 1.07 1.08 1.09 1.10 1.11 1.13 1.17 1.21 1.27 1.31 1.33 1.32 1.33 1.43 1.52 1.61 1.60 1.67 1.73 1.72 1.77 1.98 2.00 1.98 1.93 1.88 1.78 1.81 1.82 1.84 1.86 1.85 1.66 1.52 1.43 1.42 1.46 1.46 1.42 1.35 1.31 1.30 1.35 1.35 1.33 1.26 1.20 1.16 1.15 1.14 1.13 1.12 1.09 1.02 0.95 0.91 0.90 0.90 0.92 0.95 0.93 0.90 0.87 0.84 0.78 0.75 0.72 0.68 0.63 0.57 0.55 0.55 0.53 0.51 0.49 0.48 0.46 0.43 0.39 0.38 0.36
1.13 1.12 1.11 1.09 1.06 1.08 1.13 1.17 1.20 1.20 1.17 1.14 1.14 1.19 1.28 1.39 1.47 1.47 1.51 1.52 1.61 1.62 1.58 1.71 1.88 2.03 1.93 1.96 1.91 1.86 1.76 1.73 1.69 1.62 1.62 1.60 1.58 1.49 1.44 1.38 1.32 1.35 1.38 1.38 1.35 1.35 1.35 1.32 1.27 1.22 1.18 1.14 1.13 1.14 1.13 1.10 1.03 0.96 0.91 0.89 0.89 0.89 0.89 0.88 0.87 0.87 0.83 0.78 0.72 0.66 0.62 0.59 0.55 0.52 0.50 0.49 0.48 0.47 0.45 0.43 0.41 0.39 0.37 0.36 0.34
1.16 1.15 1.13 1.10 1.07 1.09 1.13 1.17 1.18 1.18 1.18 1.16 1.15 1.18 1.24 1.32 1.45 1.50 1.62 1.62 1.73 1.70 1.77 1.76 1.83 1.77 2.10 1.94 1.86 1.82 1.80 1.74 1.57 1.40 1.43 1.50 1.51 1.45 1.33 1.30 1.30 1.31 1.29 1.33 1.35 1.38 1.37 1.32 1.26 1.20 1.17 1.14 1.15 1.15 1.13 1.05 0.97 0.91 0.90 0.88 0.85 0.85 0.85 0.85 0.83 0.80 0.75 0.67 0.61 0.58 0.55 0.52 0.50 0.48 0.48 0.46 0.45 0.42 0.40 0.38 0.37 0.37 0.37 0.35 0.31
1.10 1.10 1.11 1.12 1.12 1.09 1.10 1.14 1.16 1.16 1.18 1.19 1.20 1.23 1.25 1.21 1.27 1.61 1.76 1.66 1.70 2.11 2.03 1.82 1.83 2.01 1.77 1.80 1.82 1.77 1.69 1.56 1.45 1.45 1.41 1.40 1.44 1.44 1.37 1.33 1.30 1.31 1.32 1.34 1.37 1.39 1.33 1.30 1.25 1.20 1.17 1.15 1.14 1.14 1.07 0.97 0.92 0.90 0.87 0.86 0.85 0.84 0.83 0.82 0.78 0.73 0.66 0.60 0.57 0.55 0.51 0.47 0.45 0.45 0.44 0.41 0.39 0.38 0.37 0.37 0.36 0.36 0.35 0.32 0.27
1.15 1.14 1.13 1.13 1.14 1.18 1.17 1.18 1.20 1.20 1.19 1.18 1.21 1.21 1.22 1.29 1.37 1.41 1.55 1.69 1.51 1.56 1.83 1.74 1.87 1.61 1.69 1.66 1.69 1.56 1.41 1.44 1.45 1.40 1.39 1.39 1.47 1.47 1.42 1.41 1.39 1.36 1.35 1.37 1.38 1.35 1.30 1.27 1.23 1.19 1.19 1.17 1.13 1.07 0.98 0.92 0.89 0.86 0.84 0.84 0.84 0.83 0.81 0.78 0.75 0.68 0.62 0.58 0.55 0.51 0.48 0.44 0.42 0.42 0.42 0.39 0.37 0.36 0.36 0.36 0.35 0.34 0.32 0.28 0.24
1.18 1.18 1.18 1.16 1.14 1.16 1.21 1.22 1.22 1.19 1.19 1.22 1.19 1.17 1.16 1.20 1.24 1.34 1.40 1.44 1.51 1.48 1.71 1.85 1.76 1.71 1.59 1.57 1.52 1.52 1.41 1.35 1.37 1.32 1.33 1.38 1.46 1.42 1.40 1.39 1.36 1.36 1.39 1.39 1.38 1.33 1.28 1.23 1.22 1.22 1.20 1.15 1.07 0.99 0.93 0.89 0.86 0.84 0.84 0.83 0.82 0.81 0.78 0.74 0.68 0.62 0.58 0.54 0.51 0.48 0.45 0.43 0.44 0.45 0.44 0.40 0.37 0.36 0.35 0.35 0.34 0.32 0.27 0.24 0.22
1.24 1.22 1.21 1.19 1.19 1.20 1.22 1.24 1.26 1.25 1.20 1.16 1.17 1.19 1.19 1.24 1.24 1.27 1.35 1.42 1.42 1.54 1.58 1.54 1.52 1.54 1.59 1.59 1.49 1.40 1.30 1.33 1.34 1.31 1.32 1.35 1.37 1.38 1.37 1.33 1.34 1.35 1.37 1.36 1.33 1.30 1.27 1.24 1.23 1.19 1.15 1.07 1.00 0.95 0.91 0.87 0.86 0.85 0.85 0.82 0.80 0.77 0.75 0.69 0.62 0.57 0.52 0.49 0.45 0.43 0.42 0.43 0.45 0.45 0.44 0.40 0.38 0.37 0.35 0.34 0.33 0.30 0.27 0.24 0.22
1.34 1.32 1.26 1.23 1.23 1.24 1.23 1.22 1.23 1.26 1.22 1.20 1.21 1.26 1.26 1.29 1.31 1.32 1.41 1.40 1.47 1.47 1.44 1.43 1.45 1.50 1.53 1.48 1.48 1.45 1.33 1.27 1.30 1.31 1.31 1.33 1.33 1.35 1.36 1.37 1.37 1.39 1.39 1.37 1.35 1.32 1.27 1.21 1.17 1.13 1.06 1.00 0.96 0.92 0.89 0.87 0.86 0.85 0.83 0.81 0.79 0.75 0.70 0.64 0.58 0.52 0.47 0.43 0.41 0.41 0.42 0.44 0.45 0.44 0.40 0.39 0.39 0.38 0.37 0.36 0.33 0.30 0.27 0.25 0.22
1.47 1.40 1.35 1.32 1.27 1.25 1.23 1.23 1.25 1.27 1.27 1.25 1.22 1.21 1.23 1.26 1.32 1.44 1.40 1.33 1.35 1.35 1.38 1.40 1.42 1.43 1.45 1.44 1.44 1.41 1.30 1.24 1.29 1.32 1.34 1.34 1.35 1.37 1.40 1.41 1.42 1.41 1.39 1.35 1.29 1.22 1.18 1.15 1.11 1.05 1.00 0.96 0.92 0.90 0.89 0.87 0.85 0.84 0.81 0.78 0.74 0.69 0.63 0.57 0.53 0.47 0.43 0.41 0.41 0.42 0.42 0.43 0.44 0.43 0.41 0.40 0.38 0.37 0.37 0.35 0.32 0.29 0.26 0.23 0.22
1.46 1.46 1.46 1.40 1.34 1.28 1.21 1.21 1.23 1.26 1.28 1.32 1.29 1.28 1.24 1.17 1.24 1.33 1.36 1.40 1.40 1.36 1.30 1.29 1.31 1.36 1.40 1.41 1.40 1.38 1.36 1.36 1.32 1.32 1.34 1.38 1.40 1.42 1.41 1.40 1.39 1.36 1.32 1.27 1.23 1.20 1.16 1.11 1.06 1.01 0.96 0.93 0.92 0.91 0.89 0.87 0.85 0.82 0.79 0.74 0.69 0.64 0.59 0.54 0.50 0.45 0.42 0.41 0.41 0.42 0.42 0.43 0.43 0.41 0.40 0.39 0.37 0.35 0.34 0.32 0.30 0.28 0.24 0.22 0.22
1.47 1.47 1.47 1.44 1.40 1.33 1.33 1.29 1.28 1.29 1.33 1.34 1.34 1.37 1.30 1.30 1.28 1.18 1.20 1.28 1.33 1.33 1.34 1.37 1.35 1.32 1.32 1.34 1.36 1.38 1.36 1.39 1.39 1.43 1.47 1.47 1.44 1.42 1.40 1.38 1.35 1.30 1.26 1.23 1.22 1.21 1.16 1.09 1.01 0.98 0.96 0.95 0.95 0.93 0.91 0.87 0.83 0.79 0.76 0.71 0.65 0.60 0.55 0.50 0.46 0.43 0.41 0.41 0.41 0.41 0.42 0.42 0.41 0.40 0.39 0.37 0.34 0.31 0.30 0.29 0.27 0.24 0.22 0.22 0.23
1.38 1.41 1.43 1.42 1.45 1.44 1.37 1.35 1.30 1.33 1.31 1.30 1.34 1.32 1.34 1.37 1.30 1.27 1.29 1.31 1.26 1.25 1.28 1.34 1.34 1.30 1.27 1.27 1.30 1.34 1.42 1.47 1.53 1.54 1.53 1.52 1.47 1.44 1.42 1.39 1.34 1.29 1.27 1.24 1.23 1.18 1.11 1.03 0.98 0.95 0.94 0.94 0.95 0.93 0.89 0.85 0.83 0.79 0.74 0.68 0.62 0.56 0.51 0.47 0.44 0.43 0.43 0.41 0.41 0.41 0.41 0.40 0.39 0.38 0.35 0.33 0.30 0.27 0.26 0.24 0.22 0.20 0.21 0.22 0.22
1.35 1.36 1.33 1.33 1.38 1.39 1.44 1.44 1.42 1.39 1.34 1.35 1.31 1.33 1.38 1.35 1.32 1.34 1.36 1.35 1.30 1.26 1.27 1.30 1.32 1.35 1.37 1.43 1.44 1.49 1.55 1.55 1.58 1.52 1.48 1.49 1.47 1.43 1.40 1.37 1.34 1.31 1.28 1.24 1.18 1.10 1.04 1.01 0.98 0.97 0.95 0.95 0.95 0.90 0.87 0.84 0.81 0.77 0.72 0.67 0.61 0.55 0.51 0.47 0.44 0.42 0.42 0.41 0.40 0.40 0.39 0.38 0.37 0.35 0.32 0.29 0.26 0.25 0.22 0.20 0.20 0.22 0.22 0.23 0.24
1.39 1.37 1.33 1.35 1.35 1.37 1.39 1.42 1.48 1.49 1.48 1.46 1.39 1.38 1.36 1.34 1.34 1.36 1.36 1.34 1.33 1.31 1.30 1.32 1.34 1.38 1.43 1.50 1.45 1.47 1.54 1.50 1.49 1.47 1.45 1.44 1.42 1.40 1.40 1.37 1.32 1.26 1.20 1.16 1.13 1.08 1.05 1.03 1.01 1.00 0.98 0.97 0.93 0.88 0.85 0.82 0.78 0.73 0.69 0.65 0.61 0.55 0.49 0.45 0.42 0.41 0.41 0.41 0.40 0.37 0.35 0.33 0.32 0.30 0.28 0.27 0.24 0.22 0.20 0.20 0.21 0.23 0.24 0.25 0.25
1.34 1.33 1.33 1.31 1.32 1.30 1.31 1.34 1.35 1.38 1.45 1.50 1.48 1.40 1.36 1.35 1.36 1.37 1.36 1.33 1.29 1.29 1.30 1.31 1.30 1.32 1.36 1.42 1.50 1.52 1.50 1.45 1.43 1.43 1.42 1.39 1.38 1.35 1.32 1.26 1.21 1.17 1.14 1.12 1.09 1.07 1.05 1.03 1.02 1.01 0.99 0.96 0.91 0.87 0.84 0.80 0.75 0.71 0.69 0.65 0.59 0.52 0.45 0.39 0.37 0.36 0.36 0.35 0.32 0.29 0.29 0.28 0.27 0.25 0.23 0.22 0.20 0.19 0.19 0.19 0.22 0.25 0.26 0.26 0.27
1.23 1.24 1.23 1.25 1.25 1.24 1.25 1.24 1.25 1.29 1.32 1.37 1.43 1.45 1.42 1.41 1.44 1.42 1.38 1.37 1.38 1.40 1.40 1.33 1.29 1.31 1.35 1.38 1.38 1.39 1.39 1.38 1.36 1.36 1.36 1.35 1.32 1.30 1.26 1.21 1.17 1.13 1.08 1.04 1.03 1.03 1.04 1.05 1.04 1.02 0.99 0.96 0.91 0.87 0.83 0.78 0.74 0.72 0.69 0.64 0.58 0.48 0.37 0.30 0.27 0.26 0.26 0.25 0.25 0.25 0.25 0.25 0.24 0.22 0.21 0.19 0.18 0.19 0.20 0.21 0.23 0.26 0.27 0.28 0.27
1.16 1.15 1.18 1.20 1.19 1.20 1.21 1.20 1.22 1.22 1.26 1.31 1.32 1.33 1.41 1.41 1.46 1.48 1.48 1.44 1.42 1.44 1.42 1.39 1.36 1.32 1.33 1.36 1.38 1.37 1.34 1.31 1.31 1.31 1.30 1.29 1.28 1.25 1.20 1.14 1.09 1.06 1.05 1.05 1.06 1.06 1.06 1.06 1.05 1.02 1.00 0.96 0.91 0.87 0.83 0.78 0.75 0.71 0.68 0.63 0.54 0.45 0.40 0.39 0.37 0.35 0.31 0.27 0.26 0.26 0.26 0.25 0.24 0.21 0.20 0.19 0.19 0.19 0.19 0.22 0.26 0.28 0.28 0.27 0.25
1.16 1.17 1.16 1.15 1.17 1.17 1.17 1.18 1.17 1.17 1.21 1.22 1.24 1.26 1.30 1.32 1.36 1.42 1.44 1.44 1.43 1.44 1.39 1.32 1.36 1.34 1.37 1.40 1.39 1.35 1.33 1.33 1.32 1.30 1.27 1.24 1.21 1.18 1.15 1.13 1.10 1.08 1.08 1.08 1.08 1.07 1.05 1.04 1.03 1.01 0.98 0.94 0.90 0.86 0.83 0.78 0.73 0.68 0.63 0.58 0.52 0.49 0.45 0.42 0.39 0.38 0.36 0.35 0.34 0.32 0.30 0.27 0.24 0.21 0.19 0.18 0.18 0.19 0.21 0.25 0.29 0.29 0.28 0.27 0.26
Wind_Speed
26 26 25 25 26 26 27 27 28 28 28 28 27 27 26 25 25 24 24 23 23 23 23 23 22 21 21 21 20 19 18 17 16 15 14 14 13 13 12 12 12 12 12 12 12 12 12 12 13 13 13 13 13 13 13 13 13 13 13 12 12 13 13 14 15 16 16 16 16 16 16 17 17 17 17 17 17 17 18 19 19 20 21 22 23
26 26 25 25 26 26 26 27 27 28 28 28 28 28 27 26 26 25 24 24 24 24 24 24 23 22 22 22 21 20 19 18 17 16 15 15 14 14 14 13 13 13 13 13 13 13 13 13 13 13 14 14 14 15 14 14 14 14 14 14 14 15 15 15 16 16 17 17 17 17 17 18 18 18 18 18 18 18 19 19 20 21 22 23 24
27 26 25 25 26 26 26 26 27 27 28 28 28 28 28 27 26 26 25 25 25 25 25 25 24 24 23 23 22 21 20 19 18 17 17 16 16 15 15 15 14 14 14 14 14 14 14 14 14 14 15 15 15 16 16 15 15 15 15 16 16 16 16 16 16 17 18 18 18 18 18 19 19 19 19 19 19 19 20 20 21 22 23 24 24
27 26 26 26 25 25 25 26 26 27 27 27 28 28 28 27 27 26 26 25 26 26 26 25 25 25 24 24 23 22 21 20 19 18 18 17 17 16 16 16 16 15 15 15 15 15 15 15 15 15 15 16 16 16 16 16 16 16 17 17 17 17 17 17 17 18 19 19 19 19 20 20 20 20 20 20 20 21 21 21 22 23 24 25 25
27 27 26 26 26 26 26 26 26 26 27 27 27 27 27 27 27 27 26 26 26 26 26 26 26 26 25 25 24 23 22 21 20 19 19 18 18 17 17 17 17 17 16 16 16 17 17 17 17 17 17 17 17 17 17 17 17 17 18 18 18 18 18 18 18 19 20 20 20 21 21 21 22 21 21 21 22 22 22 23 23 24 25 25 26
28 27 27 26 26 26 26 26 26 26 26 26 26 27 27 27 27 27 27 27 27 27 27 27 27 27 26 26 25 24 23 22 21 20 20 19 19 18 18 18 18 18 18 18 18 18 18 19 19 18 18 18 18 18 18 18 18 18 18 19 19 19 20 20 20 20 21 22 22 22 22 23 23 23 23 23 23 24 24 24 24 25 25 25 26
29 28 27 27 27 27 27 27 26 26 25 25 25 26 26 26 27 27 27 27 28 28 28 28 28 28 27 27 26 25 24 23 22 22 21 20 19 19 19 18 18 18 18 19 19 19 20 20 20 20 20 20 20 20 19 19 19 19 20 20 20 20 21 21 21 21 22 23 23 23 23 24 24 24 24 24 24 25 25 26 26 26 27 26 26
29 29 28 28 28 28 28 27 26 26 25 25 25 25 25 26 26 27 27 27 28 28 29 29 29 28 28 28 27 26 25 24 24 23 22 21 21 20 19 19 19 19 19 20 20 20 21 21 21 22 21 21 21 21 20 20 20 20 21 21 21 21 22 22 22 23 23 24 24 24 24 24 24 25 25 25 25 26 26 27 27 27 28 27 27
30 29 29 29 29 29 29 28 28 27 26 26 26 25 25 26 26 26 27 27 28 28 29 30 30 29 29 28 28 27 26 25 25 24 23 22 22 21 20 20 20 20 20 20 20 21 21 22 22 22 22 22 21 21 20 20 21 21 21 22 22 22 22 23 23 23 24 24 25 25 25 25 25 26 26 27 26 27 27 27 28 28 28 28 28
30 30 30 30 30 30 30 30 29 28 27 27 26 26 25 25 26 26 27 27 28 28 29 30 30 30 29 29 29 28 27 26 26 26 25 24 23 22 21 21 21 21 21 21 21 21 21 22 22 22 22 22 21 21 20 21 21 22 22 22 22 23 23 23 23 24 24 25 25 25 25 26 26 27 27 27 27 27 28 28 29 29 29 29 29
30 30 31 30 30 30 30 30 30 30 29 28 27 27 26 25 25 26 27 28 28 29 29 30 30 30 30 30 30 29 28 28 27 27 26 25 24 23 22 22 21 21 21 21 21 21 21 21 22 22 23 23 22 21 21 21 22 23 23 23 23 23 23 23 24 24 25 25 25 26 26 26 27 27 27 28 28 29 29 29 29 29 30 31 31
31 31 31 31 30 31 31 31 31 31 31 30 29 28 27 27 26 26 26 27 28 29 30 30 31 30 30 31 31 30 29 29 28 28 27 26 25 24 23 23 23 22 22 21 21 20 20 20 21 22 24 24 22 22 22 22 23 23 23 23 23 24 24 24 24 25 25 25 25 26 26 27 27 28 29 29 30 29 29 29 30 31 32 32 31
31 31 31 31 31 31 31 31 32 32 32 32 31 30 29 28 28 27 27 27 27 29 30 31 31 31 31 31 31 31 30 30 29 29 28 27 26 25 25 24 24 23 23 22 21 21 20 21 22 23 24 24 23 23 23 23 23 24 24 24 24 25 24 24 24 25 25 25 25 26 27 28 29 30 30 30 29 29 28 29 30 31 32 32 32
32 32 31 32 32 32 32 32 32 33 33 33 32 32 31 30 29 28 28 27 28 29 30 31 32 32 32 32 32 32 31 31 30 30 29 28 27 27 26 26 25 24 23 23 23 23 23 23 23 23 24 24 24 24 25 25 24 24 24 24 24 25 25 25 25 25 25 26 26 28 29 29 30 31 31 29 29 28 28 30 31 31 32 32 33
32 31 31 31 31 32 32 33 33 33 33 33 34 34 33 32 31 30 29 29 29 29 30 31 32 32 32 32 32 32 32 32 31 31 30 29 28 28 28 26 25 24 23 24 24 24 24 24 24 24 24 25 25 25 26 26 25 25 24 24 24 24 24 25 25 25 26 26 27 29 29 29 30 31 30 28 28 29 29 31 32 32 32 33 34
32 31 31 31 31 31 31 32 32 32 33 34 34 35 35 34 33 32 31 31 31 30 31 31 32 33 33 33 33 33 33 33 32 32 31 30 29 29 28 27 26 25 24 24 24 24 24 25 25 25 25 25 26 26 26 26 25 25 24 24 24 24 24 25 25 25 25 26 27 28 29 29 30 29 28 28 28 29 30 31 32 32 33 34 35
32 32 32 32 31 30 30 31 31 32 33 34 35 36 36 36 35 35 34 33 32 32 32 32 33 33 33 34 34 34 33 33 33 32 31 31 30 30 29 28 27 26 25 24 24 24 25 25 25 25 25 26 26 26 25 25 25 24 23 23 23 24 24 24 24 24 25 26 27 28 28 29 29 28 27 28 29 29 30 32 32 33 33 34 34
32 32 31 31 30 30 30 30 31 32 32 33 35 35 36 37 37 37 36 35 35 34 34 33 34 34 34 35 35 35 34 34 34 33 32 32 31 30 29 29 28 27 26 25 25 25 26 26 25 25 26 26 26 25 25 24 24 23 22 22 22 23 23 23 23 24 25 26 26 27 27 27 26 26 27 28 29 30 31 32 32 33 33 33 32
32 31 31 30 30 30 31 31 31 32 32 33 34 35 36 36 37 38 38 38 37 36 35 35 35 35 36 36 36 36 36 35 35 34 33 33 32 31 30 29 28 27 26 25 25 25 26 26 25 25 25 25 25 25 25 24 23 22 22 22 22 22 22 23 24 24 25 25 26 26 26 25 25 26 27 28 29 30 32 32 32 32 31 30 29
31 30 30 30 31 31 32 32 32 32 33 34 34 35 35 36 37 38 39 39 39 38 37 37 37 37 37 37 37 38 37 36 35 35 34 34 33 32 31 30 29 28 27 26 25 25 25 25 25 25 25 25 25 25 24 23 23 22 22 22 22 22 22 23 23 24 24 24 25 25 25 25 25 26 27 29 30 31 32 31 31 30 28 28 27
31 31 30 30 32 32 33 34 34 34 34 34 34 34 35 36 38 38 39 39 40 40 40 39 38 38 38 38 38 38 38 37 36 36 36 35 34 33 32 31 30 28 27 26 26 26 25 25 25 24 24 25 25 25 24 23 23 23 23 22 22 21 22 23 23 23 23 23 23 24 24 24 26 27 28 29 30 31 31 30 28 27 26 26 26
32 32 33 33 34 34 34 35 35 35 35 35 36 35 35 37 38 38 38 39 40 41 42 41 40 40 40 40 40 39 39 39 37 37 37 36 36 34 33 32 30 29 28 27 26 26 25 25 24 24 24 25 25 25 24 23 23 23 22 21 21 21 22 22 23 23 22 22 22 23 24 25 26 27 28 29 29 29 29 28 26 25 25 25 26
33 34 35 35 36 36 37 37 36 36 36 37 38 38 37 37 38 38 39 40 40 41 42 43 42 42 41 41 41 40 40 39 39 38 38 37 36 35 34 33 31 30 29 27 27 26 25 25 24 24 24 25 25 24 23 22 22 22 21 20 21 21 22 22 22 22 21 22 22 23 24 24 25 26 27 28 28 28 27 25 25 24 25 25 26
33 34 35 36 37 37 38 38 38 38 37 37 38 39 39 39 39 40 40 40 40 40 42 43 43 43 43 42 41 41 41 40 40 39 39 38 37 36 35 34 32 31 29 28 27 27 26 25 25 24 24 24 24 23 22 21 21 21 20 20 21 21 22 22 21 21 21 21 22 23 23 24 25 26 26 27 27 26 25 24 24 24 25 26 26
32 34 35 36 37 38 38 39 40 40 39 39 40 40 40 40 41 41 41 41 41 41 42 43 44 44 44 43 43 42 41 41 41 40 40 39 38 37 36 34 33 32 30 28 28 27 26 25 24 23 23 23 23 22 21 20 20 20 20 20 21 21 21 21 21 20 20 21 22 22 23 24 24 25 26 26 26 25 24 23 24 25 25 26 27
31 33 34 35 36 37 38 39 40 41 42 42 42 42 42 42 42 42 42 42 42 42 42 43 44 44 44 44 44 43 42 42 42 41 41 40 39 38 36 34 33 32 30 28 27 26 25 25 23 23 23 23 22 21 20 20 20 20 20 20 21 21 21 20 20 20 20 21 22 22 23 23 24 24 25 26 25 24 23 23 24 25 25 26 27
31 32 33 34 35 37 38 40 41 41 42 43 44 44 43 43 44 44 45 45 45 44 44 44 44 44 44 44 44 44 44 43 43 42 41 40 39 38 36 34 32 31 30 28 27 26 25 24 23 23 23 23 21 20 20 20 20 20 20 20 20 20 19 19 19 20 20 21 21 22 22 23 23 24 25 25 24 23 23 23 24 25 25 25 26
31 32 33 34 35 37 39 40 41 42 43 44 44 44 45 45 46 47 48 48 47 47 46 46 45 45 45 45 44 44 44 44 44 44 42 41 40 38 36 34 32 31 31 29 27 27 26 24 23 23 23 22 21 20 20 20 20 20 20 19 18 18 18 19 19 20 20 20 21 22 22 22 23 24 24 24 24 23 23 23 24 24 24 25 25
31 32 33 34 35 36 38 40 41 42 43 44 45 46 46 47 48 49 50 50 51 50 49 48 48 47 46 47 47 46 46 46 46 45 44 42 41 39 37 36 34 32 31 30 28 27 26 25 24 24 24 23 22 21 21 21 20 20 19 18 18 18 19 19 19 20 20 21 21 22 22 22 23 24 24 23 23 22 22 23 23 23 23 24 25
33 33 34 34 35 36 37 39 40 42 44 45 46 47 48 49 50 51 51 52 54 54 54 53 52 50 49 49 49 48 47 47 47 47 46 44 43 41 39 37 35 32 31 30 29 28 27 25 25 25 24 23 22 21 21 20 20 19 19 18 19 19 19 19 19 20 20 21 21 21 21 22 23 23 23 23 22 22 22 22 22 22 23 24 25
32 33 33 33 34 35 36 37 39 41 43 45 47 49 50 51 52 53 54 55 56 56 56 56 55 54 52 51 50 49 48 47 47 48 47 46 44 41 38 35 33 31 31 29 29 28 27 26 26 25 24 22 22 21 21 20 20 19 19 19 19 19 19 20 20 20 20 21 21 21 21 22 22 23 23 22 21 21 21 21 21 22 23 24 24
30 30 31 31 32 33 34 35 37 39 41 43 45 48 50 53 55 56 57 58 58 59 58 56 55 55 54 52 50 47 46 45 46 46 46 45 43 40 37 34 31 30 30 29 29 28 27 26 26 25 24 22 22 21 21 20 20 20 19 19 19 19 20 20 20 20 21 21 20 20 21 21 22 22 21 21 20 20 20 20 21 22 22 23 23
26 27 28 29 30 31 32 34 35 37 39 41 44 46 48 51 54 56 58 59 60 61 61 59 56 54 53 51 48 45 43 42 41 40 41 42 42 39 36 33 30 29 29 29 28 27 26 26 26 24 23 22 22 21 21 21 20 19 19 19 19 19 20 20 20 20 20 20 19 20 20 20 21 20 20 20 20 20 20 20 21 21 22 22 23
24 25 26 27 28 30 31 32 33 34 36 38 41 44 46 49 51 54 56 58 59 59 59 59 58 54 51 49 47 44 43 41 38 36 36 37 39 39 35 32 30 28 28 28 27 26 26 26 25 24 23 22 22 21 21 21 20 19 19 19 19 19 19 19 20 20 19 19 19 19 19 19 19 19 19 19 19 19 19 19 19 20 21 22 23
22 22 23 23 24 25 26 27 28 29 31 33 35 38 41 44 48 53 56 59 62 61 58 56 56 54 50 47 46 44 42 40 37 36 36 36 36 36 34 31 29 29 28 28 27 26 26 25 24 24 23 22 21 21 21 21 20 19 19 19 19 19 19 19 19 19 18 18 18 18 18 18 18 19 19 19 19 18 18 18 18 19 20 21 22
20 20 20 20 20 21 21 23 23 24 26 27 29 29 30 33 38 42 47 51 54 57 56 52 51 52 49 45 43 42 39 37 37 37 37 37 36 35 34 31 29 29 29 28 27 26 26 25 24 24 23 22 21 21 21 20 20 19 19 19 19 19 19 19 19 18 18 18 18 18 17 17 18 18 18 18 18 17 17 17 18 19 20 21 21
18 19 19 19 19 18 19 20 20 21 22 23 24 25 26 26 27 26 24 26 28 36 46 47 45 45 45 42 41 39 36 34 35 35 35 36 35 35 34 32 30 29 28 28 27 26 25 25 24 23 22 22 21 21 21 20 20 19 19 18 19 19 19 19 18 18 17 17 17 17 17 17 17 18 18 17 17 16 16 17 17 18 19 20 21
17 18 18 18 18 18 18 18 19 19 20 20 20 21 21 20 19 17 12 10 10 13 29 41 40 38 40 40 39 39 37 33 31 32 33 34 34 33 32 31 30 28 27 27 27 26 25 24 24 23 22 22 21 21 20 20 19 19 18 18 19 19 19 18 18 17 17 17 17 17 16 16 16 17 17 16 16 16 16 16 17 18 19 20 20
17 17 17 17 17 17 17 17 18 18 18 18 18 17 17 15 13 13 10 8 3 4 14 29 33 32 35 36 35 35 35 33 30 30 32 33 32 30 30 29 28 27 27 26 27 26 25 25 25 23 22 21 21 20 20 20 19 19 18 19 19 19 19 18 18 18 17 17 17 16 16 16 16 16 16 16 16 16 16 16 17 18 19 19 20
16 16 16 16 16 16 16 16 17 17 16 16 16 14 13 12 10 10 8 5 7 6 11 19 24 26 29 30 29 29 31 30 29 29 29 30 29 28 27 27 26 26 26 26 26 25 25 25 24 22 21 21 21 21 20 20 19 19 19 19 19 19 19 18 18 18 17 17 16 15 15 15 16 16 16 16 16 16 16 16 17 18 19 19 20
16 15 15 16 16 16 16 15 15 15 15 15 14 12 11 10 8 7 6 1 6 7 6 10 15 17 19 21 22 23 25 26 27 27 27 26 26 26 25 25 24 24 25 25 25 25 24 24 22 21 21 21 21 21 20 20 19 19 19 19 19 19 19 19 18 17 17 16 15 15 15 15 16 16 16 16 16 16 16 17 17 18 19 19 20
15 15 15 15 15 15 15 16 15 15 14 13 12 11 10 10 8 6 4 2 3 5 6 7 9 11 13 15 17 18 20 21 22 23 23 23 23 23 23 24 24 24 24 24 23 23 23 22 21 21 21 21 21 20 20 19 19 19 19 19 19 19 19 19 18 17 17 16 15 15 15 15 16 16 16 16 16 16 16 17 18 18 18 19 19
16 16 15 15 15 15 15 15 15 15 14 13 12 11 10 10 10 8 6 5 5 5 6 7 9 10 12 13 14 16 17 19 20 21 21 21 21 21 22 23 23 23 23 22 22 22 22 21 21 21 21 20 20 20 19 19 19 19 19 20 20 20 19 19 18 17 17 16 15 15 15 16 16 16 16 16 16 16 17 17 18 18 18 18 19
17 16 16 16 16 16 15 14 14 14 13 13 12 12 11 11 10 9 8 7 8 8 9 9 10 11 12 13 13 15 17 18 19 20 21 21 21 21 22 22 22 21 21 21 21 21 21 21 20 20 20 20 20 19 19 19 19 19 20 20 20 20 19 19 18 18 17 16 16 16 16 16 16 16 16 16 17 17 17 18 18 18 18 18 19
17 17 17 17 16 16 16 15 15 14 14 13 13 13 12 11 11 10 9 9 9 10 11 12 12 13 14 14 14 15 17 18 19 20 20 21 21 21 20 20 20 20 20 21 21 21 20 20 20 20 20 20 20 20 19 19 19 20 20 19 19 19 19 19 18 17 17 16 16 16 16 16 16 16 17 17 17 17 17 17 17 17 17 18 18
19 18 18 18 17 17 16 16 16 16 15 15 14 14 13 13 12 12 12 11 12 12 13 14 15 15 15 15 15 16 18 18 19 19 19 19 20 20 20 20 20 20 20 20 20 20 20 20 20 20 20 20 20 20 19 19 19 19 19 19 19 19 19 18 18 17 17 17 17 17 16 16 16 17 17 17 17 17 17 17 17 17 17 17 18
18 18 18 18 18 17 17 17 17 17 16 16 15 15 14 14 14 13 13 13 14 14 15 16 16 16 16 16 16 17 18 18 18 18 19 19 19 19 20 20 20 20 20 20 20 20 20 20 20 20 20 20 20 20 20 19 19 19 19 18 18 18 18 18 18 18 17 17 17 16 16 16 17 17 17 17 17 17 17 16 16 16 17 17 18
17 17 17 17 17 17 17 17 17 17 17 16 16 16 16 16 16 15 14 14 14 15 15 15 15 15 15 16 16 17 17 18 18 19 19 19 19 19 19 19 19 19 19 19 19 20 20 20 20 20 20 21 21 21 20 20 19 19 19 18 18 18 18 18 17 17 17 16 16 16 16 16 16 17 17 17 16 16 16 16 16 16 17 17 17
15 15 15 15 16 16 17 17 17 17 17 17 17 17 17 16 16 16 15 15 15 14 14 15 15 15 15 16 16 17 17 18 18 19 19 19 19 19 20 19 19 20 19 19 19 20 20 20 21 21 21 22 22 21 20 20 20 19 19 18 18 18 18 17 16 16 16 16 15 15 16 16 16 16 16 16 16 16 16 16 16 16 17 17 17
12 12 13 14 15 16 16 17 17 17 17 17 17 16 16 16 15 15 15 15 15 14 15 15 16 16 16 17 17 17 17 17 18 18 19 19 19 19 19 19 20 20 20 19 20 20 21 21 21 22 22 22 22 22 21 21 20 19 19 18 18 17 17 16 16 16 16 16 15 15 15 16 16 16 16 16 16 16 16 16 16 16 17 17 17
11 11 12 13 13 14 14 14 15 15 15 16 16 16 15 15 15 14 14 14 14 14 15 16 16 16 16 17 17 17 17 17 17 17 18 18 19 19 19 20 20 20 20 20 20 21 21 22 22 23 23 23 23 22 22 21 20 19 19 18 17 17 17 16 16 16 16 16 16 15 15 16 16 16 16 16 16 16 16 16 16 16 17 17 17
Wind_Direction
229 231 233 234 235 235 236 236 236 236 237 237 237 237 237 238 238 239 237 236 235 234 233 233 233 234 234 235 236 238 240 242 245 249 252 255 259 264 269 272 276 281 285 286 287 289 292 294 295 295 295 295 295 297 299 299 298 298 299 300 301 302 302 300 300 301 302 301 300 298 298 298 298 297 296 296 296 296 297 298 298 298 298 298 298
228 230 232 233 235 235 236 236 237 237 237 238 238 238 238 238 238 239 237 235 234 234 233 233 233 234 234 235 236 237 239 242 245 248 251 255 258 262 266 269 272 277 281 283 284 286 290 292 293 294 293 292 292 293 294 294 294 295 295 297 298 298 299 299 299 300 300 299 298 297 297 298 298 297 296 295 295 296 298 298 299 299 300 299 298
228 229 231 233 235 235 236 236 237 237 238 238 238 238 238 239 239 238 237 235 234 233 233 233 233 234 234 235 235 237 239 241 244 247 250 254 257 261 265 268 271 274 278 281 282 285 287 289 291 293 293 292 291 290 291 291 291 292 293 294 296 296 296 297 299 299 299 298 297 297 297 297 298 297 296 294 294 295 296 298 299 300 300 300 299
227 228 231 233 233 234 236 236 237 237 237 238 238 238 239 239 239 238 237 236 234 233 233 233 233 234 235 235 235 236 238 240 243 246 249 253 256 261 264 267 270 273 277 280 283 285 287 289 290 291 292 291 290 289 289 290 290 290 290 291 293 294 294 295 297 298 298 297 297 297 297 297 297 297 295 293 293 294 296 297 299 300 301 300 299
226 228 230 232 232 234 235 237 237 237 237 237 238 238 238 238 238 238 237 235 234 233 233 233 233 234 235 235 235 236 238 239 242 246 249 252 256 260 264 267 270 273 277 280 283 285 287 289 290 290 289 289 288 287 287 287 288 289 289 289 290 291 292 292 294 296 296 296 296 297 297 297 297 296 294 293 293 293 294 295 296 298 299 299 298
226 227 229 231 232 233 235 237 237 237 238 238 238 238 238 237 237 237 236 235 234 233 233 233 233 234 235 235 235 237 238 240 242 246 249 252 255 259 263 266 269 273 277 280 283 285 287 288 289 289 288 287 286 285 285 285 286 286 287 287 288 288 289 291 292 294 295 296 297 296 296 296 296 295 293 292 292 292 292 292 293 295 297 298 298
226 227 229 230 232 233 235 237 237 237 238 238 239 239 238 238 237 237 237 235 234 234 233 233 234 234 235 235 236 237 239 240 243 245 248 251 254 258 262 266 270 274 277 280 283 285 286 287 288 287 287 286 285 284 284 283 283 284 285 286 287 287 288 289 291 293 294 296 297 297 296 296 295 294 293 292 291 291 291 291 291 293 295 296 297
227 227 228 230 232 234 235 237 237 237 238 239 239 239 238 238 238 238 237 236 235 235 234 233 234 235 235 236 236 238 239 241 243 245 247 250 253 257 261 265 269 273 276 279 282 285 286 288 289 288 287 287 286 285 284 282 282 283 284 285 286 286 287 289 290 293 294 295 297 298 298 296 294 293 293 292 290 290 291 291 290 291 293 295 296
227 228 228 230 233 235 235 237 237 238 239 239 239 239 239 239 239 238 238 237 236 236 235 234 234 235 236 236 236 238 239 241 243 244 246 249 252 256 260 264 268 271 275 278 281 284 287 289 290 288 286 286 286 285 283 282 282 283 283 284 284 285 286 288 290 292 294 294 296 298 298 297 296 294 293 292 290 290 291 291 290 291 292 294 295
228 228 229 232 234 235 235 236 236 237 238 239 240 240 240 240 240 240 239 238 237 236 235 235 235 236 236 236 237 238 239 242 242 243 245 248 252 256 259 263 267 270 274 278 281 284 287 289 290 287 285 284 283 282 283 284 283 283 283 283 283 283 284 286 288 290 292 293 295 296 297 298 298 296 294 293 292 291 290 289 289 290 292 294 295
228 229 231 233 234 235 236 236 236 236 238 239 240 240 241 241 241 241 241 239 238 237 236 236 236 236 237 237 237 238 239 241 242 243 245 247 251 255 259 262 266 270 273 276 280 285 288 289 289 287 285 283 281 281 284 286 285 283 282 282 282 282 283 284 286 289 291 292 294 295 296 297 298 298 296 295 293 292 290 288 289 291 293 293 294
229 231 232 233 233 235 236 237 237 237 237 239 240 241 241 242 242 243 242 241 239 238 237 236 236 237 237 238 238 238 239 240 241 243 245 246 250 254 258 262 265 269 272 274 278 284 288 289 291 291 287 284 284 285 287 289 288 284 282 282 282 281 282 283 285 288 290 292 293 295 296 297 298 298 297 295 294 292 289 288 291 292 293 293 293
231 232 233 233 233 235 236 236 237 238 238 239 240 241 241 242 242 243 243 243 242 240 238 237 236 237 238 238 238 238 239 240 241 243 244 246 249 252 257 261 264 267 270 271 275 280 282 285 291 294 292 290 291 292 291 291 291 287 284 283 283 281 281 282 285 287 289 291 293 294 296 296 297 298 297 296 294 292 291 291 294 294 294 294 295
233 234 234 234 235 235 236 237 238 239 239 240 240 241 242 242 243 243 244 244 244 243 240 238 237 238 239 239 239 239 239 240 240 242 244 246 248 251 256 261 263 266 268 269 271 275 279 284 289 293 295 295 295 295 293 292 293 291 286 285 284 282 280 281 283 286 289 291 292 294 295 296 297 298 297 295 294 293 294 295 296 296 295 295 297
234 235 235 235 236 236 236 237 238 239 239 240 240 241 242 243 243 244 244 245 245 244 242 241 239 239 239 239 239 240 240 240 240 242 243 245 247 251 256 260 262 264 267 268 270 273 278 284 288 291 294 296 295 295 294 293 293 291 287 285 286 284 282 282 284 286 290 291 293 296 297 297 298 298 297 295 295 295 296 298 299 298 297 297 299
234 235 235 235 236 236 236 237 238 239 239 240 241 242 242 243 244 244 244 245 245 246 245 243 241 240 240 240 240 240 240 240 240 241 243 244 246 251 255 259 261 263 266 268 270 273 278 283 287 290 292 294 295 295 294 294 294 291 287 285 286 285 284 284 285 287 289 292 294 297 297 297 298 298 296 296 297 297 298 300 301 300 299 299 301
234 235 236 236 236 237 237 237 238 239 240 241 242 243 243 243 244 244 244 245 245 246 246 244 243 242 241 241 241 241 241 241 241 241 242 243 246 251 255 257 259 261 264 267 270 274 279 283 286 289 291 293 295 296 294 294 293 289 286 285 285 284 285 286 287 287 289 292 296 297 298 298 299 297 296 296 297 299 301 302 302 301 301 302 302
235 236 237 237 237 238 239 239 240 241 242 243 244 244 244 244 244 244 244 244 245 245 245 245 244 243 242 242 241 242 242 241 241 241 242 242 245 250 253 256 258 260 263 266 270 274 279 282 284 287 289 292 295 295 294 293 291 287 286 286 284 284 284 286 287 289 291 293 296 299 299 300 300 299 298 298 298 300 302 303 303 303 303 303 304
236 236 237 238 239 240 241 241 242 242 243 245 246 245 245 245 245 244 244 244 244 244 245 245 245 245 244 243 242 242 242 242 241 241 241 242 245 249 253 255 257 259 262 265 270 274 278 280 282 285 287 290 293 294 293 290 288 286 285 285 284 284 285 287 288 290 292 295 297 300 301 301 300 300 301 301 301 302 303 304 304 304 303 304 305
237 237 239 240 241 242 243 243 243 244 246 247 247 247 247 247 246 244 244 244 243 243 243 245 245 245 244 244 243 242 242 243 242 241 241 243 245 248 251 254 256 258 261 265 269 274 277 279 281 282 284 287 290 293 292 288 285 285 284 282 283 284 286 288 289 290 292 296 298 299 300 301 301 302 302 303 303 304 304 305 305 305 305 305 306
240 240 241 243 243 244 244 245 245 247 249 249 248 248 249 248 247 245 245 245 244 243 243 243 244 245 245 244 244 243 243 243 242 241 241 242 244 247 250 253 256 258 260 264 268 272 275 277 280 281 282 285 288 291 291 287 284 285 284 282 282 285 286 288 289 291 293 296 298 298 299 301 302 302 303 304 305 305 306 305 305 305 305 306 307
242 243 244 245 246 246 247 247 248 249 249 249 249 250 251 250 248 247 246 247 246 244 243 243 243 244 244 244 244 244 243 243 242 241 241 242 244 246 249 252 254 257 259 262 266 270 273 275 278 279 281 284 287 289 289 286 284 284 283 283 283 284 287 289 290 291 294 295 297 298 300 302 303 304 305 306 306 307 307 306 305 305 306 307 308
245 246 246 247 247 248 249 250 250 250 250 249 249 250 251 251 249 248 247 248 248 246 244 243 243 243 243 243 243 243 243 242 241 241 241 242 244 245 248 251 253 255 258 260 264 267 270 274 277 278 281 285 286 287 287 285 284 284 282 282 283 284 288 290 290 291 293 295 297 299 301 303 305 306 306 306 307 308 307 307 306 306 307 308 309
249 249 249 250 250 250 250 251 251 250 250 250 250 250 251 251 251 250 248 247 247 247 245 244 244 243 243 242 243 243 242 242 241 241 241 242 243 244 246 249 252 254 256 259 263 265 267 271 275 276 280 285 286 285 285 283 282 283 282 281 283 285 288 289 289 291 293 295 298 300 303 305 306 306 306 306 308 308 307 307 307 307 308 310 311
253 253 253 254 253 253 253 252 252 252 251 251 251 251 251 250 251 250 248 247 247 248 246 244 244 244 242 242 242 242 242 241 240 240 240 241 242 243 245 247 249 251 253 257 261 263 265 270 273 275 280 285 285 284 283 282 281 281 281 281 283 285 287 287 288 291 293 296 299 302 304 306 306 306 306 307 308 308 307 307 307 308 309 311 312
257 256 256 256 256 256 256 255 254 254 254 253 254 253 252 251 251 250 248 247 247 247 246 245 245 244 242 242 242 242 241 240 240 239 240 240 241 241 243 245 246 248 251 254 258 260 264 268 271 274 279 283 283 281 281 280 280 280 280 281 283 285 286 286 287 291 294 298 301 303 305 306 306 306 307 308 308 308 307 307 307 309 310 312 313
261 260 259 259 259 258 258 258 257 256 255 255 255 255 253 252 252 250 248 247 247 246 246 246 245 244 242 242 242 241 240 240 239 238 238 239 240 240 241 242 244 247 250 252 255 258 262 267 270 273 278 280 279 279 279 278 279 279 279 281 284 284 284 285 288 292 296 299 301 304 305 305 306 306 307 308 308 307 306 307 308 310 311 313 313
266 265 264 262 262 261 261 260 259 258 258 256 256 255 254 253 252 251 249 247 247 246 247 247 245 244 243 242 242 241 240 239 239 238 237 236 237 237 238 239 243 246 248 250 252 256 260 265 267 270 275 276 275 276 277 277 277 279 279 280 281 282 282 285 289 293 296 299 301 304 305 305 305 306 307 308 307 306 306 307 309 310 312 313 314
268 268 268 266 265 264 263 262 261 261 260 259 258 258 256 254 253 253 251 249 247 246 246 245 245 244 243 242 241 240 240 239 238 236 234 233 233 234 235 238 242 245 246 247 250 254 259 262 264 268 271 271 271 272 274 275 276 276 275 276 278 279 281 284 288 291 294 298 301 303 304 304 305 306 307 306 306 306 307 308 310 311 313 314 314
270 270 270 269 268 267 266 265 265 264 263 262 261 260 259 258 256 255 253 251 249 247 245 245 245 245 243 242 242 241 240 239 236 234 231 230 230 232 233 236 240 242 244 245 249 254 257 259 262 268 269 267 267 269 270 271 273 272 272 274 276 277 280 283 286 290 294 298 301 302 303 304 304 305 306 305 305 306 307 308 311 312 313 314 315
271 271 271 271 270 270 269 269 269 268 266 265 264 262 261 259 258 257 255 253 250 248 246 245 244 244 243 242 241 240 239 237 234 231 228 226 227 228 231 234 238 240 242 244 249 253 255 257 262 267 266 263 264 266 266 268 270 269 270 273 274 276 279 282 286 291 295 298 300 302 303 304 304 305 305 305 305 306 307 309 312 313 314 315 316
272 272 273 273 273 273 273 273 273 271 270 268 267 266 264 262 260 259 257 254 250 248 246 244 243 241 240 240 240 238 237 236 233 228 224 222 222 224 228 233 236 238 240 244 249 252 253 257 262 264 262 260 262 264 264 266 269 268 269 271 273 274 278 282 287 292 295 298 300 302 303 304 304 305 306 306 306 307 308 310 313 314 315 316 317
276 276 276 275 275 275 275 275 275 274 273 272 270 269 268 267 264 261 258 255 251 248 244 241 240 239 237 235 236 235 234 231 229 226 222 219 219 221 226 231 234 235 239 244 249 251 253 258 262 260 257 258 261 262 263 266 268 268 268 270 272 274 278 283 288 292 295 297 299 302 303 304 305 306 306 306 306 307 309 311 313 315 316 317 318
279 278 278 277 276 275 275 276 276 277 277 277 275 274 273 272 270 266 260 255 250 247 243 238 235 234 233 231 230 230 227 224 224 224 221 219 218 220 225 229 232 236 241 245 248 251 255 257 257 255 254 258 261 261 263 265 265 266 267 268 271 275 280 284 288 292 294 297 299 301 303 304 305 306 305 305 306 307 309 312 313 315 317 318 320
279 279 280 280 278 278 279 280 282 283 283 283 281 279 278 279 276 270 264 258 250 242 238 235 232 229 227 226 224 222 221 220 221 221 220 218 218 220 223 228 232 236 242 245 248 251 254 254 252 252 254 258 259 259 261 263 263 263 265 267 271 276 280 284 288 291 294 297 299 301 303 303 304 304 304 304 305 306 309 311 313 315 317 319 321
280 281 283 284 284 284 285 286 288 290 289 287 287 286 288 292 290 280 271 265 254 238 229 228 227 223 220 218 215 214 214 216 216 217 217 219 221 222 224 229 233 236 241 245 248 251 252 251 250 252 254 255 256 258 260 261 261 262 264 267 271 276 280 284 288 290 293 296 298 301 302 302 302 303 303 303 304 306 308 311 313 315 318 320 321
282 283 284 285 285 287 288 290 292 294 293 292 292 294 297 305 312 303 282 271 262 240 224 219 218 214 211 209 208 207 207 209 211 215 219 222 224 226 229 231 235 238 242 245 248 249 249 248 249 251 252 253 254 256 258 259 259 260 263 267 272 276 280 283 286 289 291 294 297 299 300 300 301 302 302 303 304 305 307 310 312 315 318 320 322
283 283 282 282 284 286 289 292 293 295 297 297 299 305 306 306 315 319 298 275 283 248 215 206 204 202 201 201 202 203 204 208 214 219 222 224 225 229 231 233 236 239 242 245 246 246 245 245 247 249 250 251 253 255 256 256 257 259 263 268 272 276 279 281 284 287 290 293 295 297 298 299 300 301 303 303 303 304 305 308 312 316 318 320 322
281 281 281 282 285 287 290 293 294 294 298 300 301 308 316 313 312 319 305 266 264 95 157 174 180 184 188 191 198 204 208 214 220 222 221 221 224 228 230 232 236 239 241 244 244 243 242 244 246 247 248 249 251 253 254 254 255 259 263 268 272 275 278 280 282 285 287 290 293 295 296 297 299 301 303 301 300 302 304 307 311 315 318 320 322
279 280 281 282 286 288 288 292 296 295 296 301 302 305 314 317 317 330 328 246 199 141 123 145 161 174 185 195 205 211 211 213 216 217 215 217 223 227 229 232 236 238 240 242 242 241 242 244 245 245 246 247 249 252 252 253 256 260 264 268 272 274 276 278 280 282 284 287 290 291 293 295 298 300 300 299 299 300 303 306 311 314 317 319 322
277 279 280 280 282 286 287 288 294 295 293 297 302 303 306 308 307 321 342 281 202 203 180 164 172 183 192 198 202 201 201 204 210 212 213 217 222 226 229 232 235 238 239 240 240 240 243 244 243 243 244 246 249 251 251 253 257 261 264 268 271 273 275 277 278 279 282 284 287 288 290 293 296 297 297 296 297 299 302 305 309 313 316 318 321
277 278 281 280 278 283 286 286 288 291 290 290 294 294 293 296 296 292 299 295 235 221 210 193 187 187 184 182 184 189 195 202 206 209 213 219 223 227 230 233 235 237 237 236 237 239 241 241 240 240 242 245 247 249 250 253 257 261 265 269 271 272 274 275 276 277 279 281 283 285 287 290 293 294 294 295 296 298 300 304 308 311 314 317 320
278 277 279 280 278 279 283 285 285 286 285 284 284 282 280 282 284 281 274 267 253 235 221 210 200 193 190 193 198 203 207 210 211 213 218 223 227 230 232 233 233 233 233 233 235 238 239 239 238 239 243 246 247 248 251 254 258 263 267 269 271 272 273 273 273 274 276 278 279 281 284 287 290 292 292 294 295 296 298 302 305 308 312 315 319
279 278 277 278 277 276 277 280 281 282 282 280 278 277 277 276 275 273 268 259 248 238 230 221 212 206 207 213 217 217 217 219 219 221 223 226 228 229 230 229 229 230 231 234 236 237 238 237 238 240 244 246 247 250 253 257 261 266 269 271 271 271 271 271 271 272 273 275 276 278 281 285 288 290 292 293 294 295 297 300 303 306 310 314 318
275 275 274 274 274 274 274 274 275 275 276 276 276 275 275 275 273 271 268 262 251 242 234 227 223 221 223 227 229 227 224 223 222 222 223 224 225 226 226 227 228 231 233 235 236 236 237 238 239 241 244 245 247 251 255 258 263 268 271 272 272 271 270 270 270 270 271 272 274 277 279 282 286 289 291 293 294 294 296 298 301 304 309 313 316
270 270 270 270 270 271 271 271 271 271 271 272 272 272 271 270 269 268 266 261 256 250 244 239 237 237 237 237 236 231 226 223 221 221 221 222 223 224 226 229 231 233 235 235 235 235 237 239 241 242 243 245 248 252 256 260 264 268 270 271 271 270 270 269 269 269 270 271 273 276 278 281 285 288 290 292 293 293 294 296 299 302 307 311 314
267 266 266 267 267 269 269 269 271 273 273 271 269 268 268 267 266 266 263 259 256 253 248 244 243 242 239 235 232 227 222 220 221 223 223 224 225 226 229 231 233 234 234 234 234 236 239 240 241 243 244 246 250 253 257 261 265 267 269 269 269 269 269 268 268 268 268 269 270 273 276 280 285 287 288 290 290 290 291 293 296 300 305 309 312
265 266 267 268 269 270 272 272 272 272 273 271 268 267 266 265 264 262 260 257 255 252 247 242 239 236 232 228 224 222 220 221 222 223 223 224 226 228 230 232 233 233 233 234 237 239 240 240 241 243 246 249 253 256 259 262 264 267 268 268 268 268 268 267 266 265 264 263 266 271 276 280 284 286 288 288 288 288 289 291 294 298 303 306 310
270 270 270 271 272 272 273 273 273 272 272 272 272 271 268 265 263 261 258 257 256 251 244 238 234 231 228 225 223 222 223 224 223 222 223 225 229 231 232 233 232 233 234 237 240 241 241 241 243 246 249 252 255 257 259 261 264 266 267 268 268 268 267 266 264 261 259 260 264 270 276 280 283 285 287 287 287 287 288 290 293 297 301 304 308
277 275 272 272 272 272 272 271 271 271 270 270 271 272 268 264 262 260 258 257 255 249 242 237 235 231 228 226 224 224 225 225 225 225 228 231 233 234 234 233 234 236 240 243 243 242 242 243 245 248 251 254 256 257 259 261 263 264 264 265 265 265 265 264 262 260 258 259 263 268 274 279 283 285 286 286 286 285 287 289 292 296 299 302 306
282 280 278 276 275 275 274 272 272 271 269 268 268 268 267 265 262 258 256 256 254 248 241 237 234 229 224 223 222 223 225 226 228 230 233 235 235 235 235 236 237 240 244 246 245 244 244 246 248 250 252 254 256 257 259 260 261 260 260 259 260 261 262 262 261 259 257 257 261 266 273 278 282 284 285 285 285 284 285 288 291 295 297 300 304